Regional Weather Roundup
Issued by NWS

Home | Current Version | Previous Version | Text Only | Print | Product List | Glossary On
Versions: 1 2 3 4 5 6 7 8 9 10 11 12 13 14 15 16 17 18 19 20 21 22 23 24 25 26 27 28 29 30 31 32 33 34 35 36 37 38 39 40 41 42 43 44 45 46 47 48 49 50
000
ASUS43 KMPX 292101
RWRMN
WEATHER ROUNDUP FOR MINNESOTA
NATIONAL WEATHER SERVICE TWIN CITIES/CHANHASSEN MN
400 PM CDT MON JUN 29 2015


NOTE: "FAIR" INDICATES FEW OR NO CLOUDS BELOW 12,000 FEET WITH NO
SIGNIFICANT WEATHER AND/OR OBSTRUCTIONS TO VISIBILITY. N/A MEANS
CURRENT SKY AND/OR WEATHER CONDITIONS ARE NOT AVAILABLE.

MNZ060>063-068>070-292200-
   Twin Cities Metro

CITY           SKY/WX    TMP DP  RH WIND       PRES   REMARKS
TWIN CITIES    PTSUNNY   80  62  54 W9        29.79S
ST PAUL        PTSUNNY   80  62  54 W13G20    29.78F
CRYSTAL        LGT RAIN  77  64  64 W10       29.77F
BLAINE         PTSUNNY   81  63  54 W9        29.79F
LAKEVILLE      MOSUNNY   77  64  65 W7        29.80S
EDEN PRAIRIE   MOSUNNY   80  63  55 W10       29.78F
SOUTH ST PAUL  PTSUNNY   81  61  50 W8        29.78S
LAKE ELMO      FAIR      81  63  54 NW10      29.80R
$$
MNZ001>005-007-008-013>017-022>024-027-028-292200-
   Northwest Minnesota

CITY           SKY/WX    TMP DP  RH WIND       PRES   REMARKS
BEMIDJI        MOSUNNY   79  59  49 N12G17    29.84S
HALLOCK        SUNNY     77  63  61 N14G21    29.88R
ROSEAU         MOSUNNY   79  63  57 N10       29.85S
WARROAD        MOSUNNY   72  64  78 NE9G16    29.87S
THIEF RVR FALL MOSUNNY   79  55  44 NW14      29.86S
CROOKSTON      SUNNY     79  64  61 N12       29.87S
FOSSTON        MOSUNNY   79  63  57 N12       29.86S
DETROIT LAKES  SUNNY     77  63  61 NW10      29.87S
MOORHEAD       SUNNY     75  64  69 NW10      29.87S
PARK RAPIDS    MOSUNNY   81  61  50 N14       29.82S
MAHNOMEN       FAIR      77  64  64 NW12      29.85S
$$
MNZ006-009>011-018-025>026-292200-
   North Central Minnesota

CITY           SKY/WX    TMP DP  RH WIND       PRES   REMARKS
BAUDETTE       SUNNY     75  58  55 N14G21    29.85R
FLAG ISLAND    MOSUNNY   72  55  56 NE12      29.86S
INTL FALLS     PTSUNNY   73  59  61 N14G21    29.83R
WASKISH        SUNNY     77  59  53 NW10G17   29.83S
BIG FORK       MOSUNNY  N/A N/A N/A N12       29.81R
LONGVILLE      SUNNY     79  61  53 NW10G16   29.80S
GRAND RAPIDS   MOSUNNY   79  57  47 N10G16    29.79S
CRANE LAKE     MOSUNNY   72  61  68 VRB6      29.81F
ORR            SUNNY     75  57  53 NW8       29.78R
COOK           MOSUNNY   72  59  64 N6        29.80S
WALKER         MOCLDY    78  62  56 NW8       29.82R
$$
MNZ012-019>021-037-292200-
   Northeast Minnesota

CITY           SKY/WX    TMP DP  RH WIND       PRES   REMARKS
DULUTH         MOSUNNY   76  60  57 N13       29.78R
ELY            MOSUNNY   72  57  60 N8G18     29.79R
HIBBING        MOSUNNY   78  59  51 N10       29.78S
EVELETH        SUNNY     73  59  60 N8G18     29.79S
DULUTH HARBOR  MOSUNNY   73  64  73 SW5       29.76S
TWO HARBORS    MOSUNNY   79  64  61 N6        29.75R
GRAND MARAIS     N/A     56  54  93 W5        29.74R
G MARAIS ARPRT CLOUDY    64  57  77 CALM      29.79S
$$
MNZ029>031-032-039>041-046>048-054>057-064-292200-
   West Central Minnesota

CITY           SKY/WX    TMP DP  RH WIND       PRES   REMARKS
FERGUS FALLS   SUNNY     75  64  69 NW13      29.85S
WHEATON        SUNNY     77  63  61 NW10G18   29.87S
MORRIS         SUNNY     79  63  57 NW14      29.84F
ALEXANDRIA     SUNNY     77  66  68 W14       29.85F
ELBOW LAKE     FAIR      76  66  71 NW12      29.85F
WADENA         SUNNY     77  63  61 NW13      29.83S
GLENWOOD       SUNNY     77  64  65 W14G20    29.85S
APPLETON       SUNNY     82  63  51 NW15      29.85S
BENSON         SUNNY     81  61  50 NW12      29.84F
ORTONVILLE     SUNNY     81  59  47 NW13      29.86F
MADISON        SUNNY     81  61  50 NW13      29.86F
WILLMAR        FAIR      81  64  57 W14G20    29.85F
$$
MNZ033>034-036-042>043-049>051-058-059-292200-
   Central Minnesota

CITY           SKY/WX    TMP DP  RH WIND       PRES   REMARKS
ST CLOUD       SUNNY     82  62  50 W9G20     29.78F
SAUK CENTRE    FAIR      78  64  62 W12G18    29.83S
PAYNESVILLE    SUNNY     76  62  63 SW13G18   29.83S
AITKIN         MOSUNNY   82  63  51 NW8G17    29.76S
PINE RIVER     MOSUNNY   81  64  57 NW7G16    29.83S
BRAINERD       MOSUNNY   83  60  45 NW14      29.79R
STAPLES        SUNNY     81  63  54 NW15      29.81S
LONG PRAIRIE   FAIR      77  64  65 W14       29.83S
LITTLE FALLS   SUNNY     81  59  47 W14       29.79F
LITCHFIELD     SUNNY     81  63  54 W10       29.83F
BUFFALO        MOSUNNY   81  63  54 W9        29.81S
MAPLE LAKE     SUNNY     80  64  58 W9        29.81F
$$
MNZ037-044-045-052-053-292200-
   East Central Minnesota

CITY           SKY/WX    TMP DP  RH WIND       PRES   REMARKS
PRINCETON      MOSUNNY   79  64  61 CALM      29.78F
MORA           SUNNY     79  63  57 W9        29.77F
CAMBRIDGE      MOSUNNY   81  64  57 W5        29.75F
RUSH CITY      MOSUNNY   79  62  56 W3        29.77F
MOOSE LAKE     PTSUNNY   61  61 100 CALM      29.76F FOG
HINCKLEY       CLOUDY    70  55  60 E7        29.78S
CLOQUET        MOSUNNY   73  61  64 CALM      29.78S
MCGREGOR       MOSUNNY   81  63  54 N16       29.76S
$$
MNZ071>073-080-081-089-090-097-098-292200-
   Southwest Minnesota

CITY           SKY/WX    TMP DP  RH WIND       PRES   REMARKS
MONTEVIDEO     SUNNY     82  63  51 NW8       29.86F
GRANITE FALLS  SUNNY     80  64  57 W9        29.87F
CANBY          SUNNY     79  61  54 W12       29.89F
MARSHALL       SUNNY     81  57  44 NW12G18   29.88F
REDWOOD FALLS  SUNNY     80  62  54 W13       29.84F
OLIVIA         SUNNY     77  63  61 W13       29.84F
PIPESTONE      SUNNY     81  57  44 NW10      29.92F
WINDOM         SUNNY     81  63  54 W12       29.89F
WORTHINGTON    SUNNY     79  59  50 W10       29.91F
JACKSON        SUNNY     81  61  50 NW8       29.90S
TRACY          SUNNY     81  62  53 NW8       29.89F
SLAYTON        SUNNY     80  59  49 W12G17    29.92S
$$
MNZ065>067-074>077-082>085-091>093-292200-
   South Central Minnesota

CITY           SKY/WX    TMP DP  RH WIND       PRES   REMARKS
MANKATO        SUNNY     81  64  57 W14       29.83S
NEW ULM        SUNNY     79  64  61 W9        29.84F
ST JAMES       SUNNY     81  64  57 W14       29.87S
FAIRMONT       SUNNY     79  61  53 NW13      29.87F
GLENCOE        SUNNY     81  66  60 W12       29.82S
FARIBAULT      SUNNY     81  64  57 W8        29.82S
OWATONNA       SUNNY     81  63  54 NW14      29.82F
WASECA         MOSUNNY   79  64  61 W13       29.84F
ALBERT LEA     MOSUNNY   81  63  54 W7G16     29.83F
$$
MNZ078>079-086>088-094>096-292200-
   Southeast Minnesota

CITY           SKY/WX    TMP DP  RH WIND       PRES   REMARKS
ROCHESTER      SUNNY     80  64  58 NW14      29.81F
RED WING       SUNNY     82  63  51 NW10      29.76S
DODGE CENTER   MOSUNNY   79  63  57 NW10G18   29.82F
AUSTIN         SUNNY     79  63  57 NW12      29.82F
PRESTON        MOSUNNY   78  62  56 W15       29.81F
$$
ABBREVIATIONS USED IN REMARKS
   TC - TEMPERATURES IN CELSIUS
  WCI - WIND CHILL INDEX
   HX - HEAT INDEX
  VSB - VISIBILITY
$$


USA.gov is the U.S. government's official web portal to all federal, state and local government web resources and services.